Time,TemperatureF,DewpointF,PressureIn,WindDirection,WindDirectionDegrees,WindSpeedMPH,WindSpeedGustMPH,Humidity,HourlyPrecipIn,Conditions,Clouds,dailyrainin,SoftwareType,DateUTC
2013-06-28 00:02:00,68.4,55.4,29.96,ENE,67,0.0,0.0,63,0.00,,,0.00,WUHU21623XXSP,2013-06-28 07:02:00,
2013-06-28 00:07:00,68.2,55.1,29.96,ENE,67,0.0,0.0,63,0.00,,,0.00,WUHU21623XXSP,2013-06-28 07:07:00,
2013-06-28 00:12:00,68.2,55.5,29.96,ENE,67,0.0,0.0,64,0.00,,,0.00,WUHU21623XXSP,2013-06-28 07:12:00,
2013-06-28 00:17:00,67.8,55.1,29.96,ENE,67,0.0,0.0,64,0.00,,,0.00,WUHU21623XXSP,2013-06-28 07:17:00,
2013-06-28 00:22:00,67.8,55.6,29.96,East,90,0.0,0.0,65,0.00,,,0.00,WUHU21623XXSP,2013-06-28 07:22:00,
2013-06-28 00:27:00,67.6,55.8,29.96,NE,45,0.0,0.0,66,0.00,,,0.00,WUHU21623XXSP,2013-06-28 07:27:00,
2013-06-28 00:32:00,67.5,55.7,29.96,East,90,0.0,0.0,66,0.00,,,0.00,WUHU21623XXSP,2013-06-28 07:32:00,
2013-06-28 00:37:00,67.3,55.9,29.96,ENE,67,0.0,0.0,67,0.00,,,0.00,WUHU21623XXSP,2013-06-28 07:37:00,
2013-06-28 00:42:00,67.1,55.7,29.96,ENE,67,0.0,0.0,67,0.00,,,0.00,WUHU21623XXSP,2013-06-28 07:42:00,
2013-06-28 00:47:00,66.9,56.0,29.96,ENE,67,0.0,0.0,68,0.00,,,0.00,WUHU21623XXSP,2013-06-28 07:47:00,
2013-06-28 00:52:00,66.7,55.8,29.96,NE,45,0.0,0.0,68,0.00,,,0.00,WUHU21623XXSP,2013-06-28 07:52:00,
2013-06-28 00:57:00,66.7,56.2,29.96,NE,45,0.0,0.0,69,0.00,,,0.00,WUHU21623XXSP,2013-06-28 07:57:00,
2013-06-28 01:02:00,66.7,56.2,29.96,NE,45,0.0,0.0,69,0.00,,,0.00,WUHU21623XXSP,2013-06-28 08:02:00,
2013-06-28 01:14:00,66.2,56.1,29.96,ENE,67,0.0,0.0,70,0.00,,,0.00,WUHU21623XXSP,2013-06-28 08:14:00,
2013-06-28 01:19:00,66.0,56.3,29.96,ENE,67,0.0,0.0,71,0.00,,,0.00,WUHU21623XXSP,2013-06-28 08:19:00,
2013-06-28 01:24:00,66.0,56.3,29.96,ENE,67,0.0,0.0,71,0.00,,,0.00,WUHU21623XXSP,2013-06-28 08:24:00,
2013-06-28 01:29:00,65.8,56.5,29.96,ENE,67,0.0,0.0,72,0.00,,,0.00,WUHU21623XXSP,2013-06-28 08:29:00,
2013-06-28 01:34:00,65.8,56.5,29.96,ENE,67,0.0,0.0,72,0.00,,,0.00,WUHU21623XXSP,2013-06-28 08:34:00,
2013-06-28 01:39:00,65.7,56.8,29.96,ENE,67,0.0,0.0,73,0.00,,,0.00,WUHU21623XXSP,2013-06-28 08:39:00,
2013-06-28 01:44:00,65.5,56.9,29.96,NE,45,0.0,0.0,74,0.00,,,0.00,WUHU21623XXSP,2013-06-28 08:44:00,
2013-06-28 01:49:00,65.5,56.9,29.96,NE,45,0.0,0.0,74,0.00,,,0.00,WUHU21623XXSP,2013-06-28 08:49:00,
2013-06-28 01:54:00,65.3,56.8,29.96,ENE,67,0.0,0.0,74,0.00,,,0.00,WUHU21623XXSP,2013-06-28 08:54:00,
2013-06-28 01:59:00,65.1,56.6,29.96,ENE,67,0.0,0.0,74,0.00,,,0.00,WUHU21623XXSP,2013-06-28 08:59:00,
2013-06-28 02:04:00,65.1,57.0,29.95,NE,45,0.0,0.0,75,0.00,,,0.00,WUHU21623XXSP,2013-06-28 09:04:00,
2013-06-28 02:09:00,64.9,57.2,29.95,NE,45,0.0,0.0,76,0.00,,,0.00,WUHU21623XXSP,2013-06-28 09:09:00,
2013-06-28 02:14:00,64.9,57.2,29.95,NE,45,0.0,0.0,76,0.00,,,0.00,WUHU21623XXSP,2013-06-28 09:14:00,
2013-06-28 02:19:00,64.9,57.5,29.95,NE,45,0.0,0.0,77,0.00,,,0.00,WUHU21623XXSP,2013-06-28 09:19:00,
2013-06-28 02:24:00,64.8,57.4,29.95,ENE,67,0.0,0.0,77,0.00,,,0.00,WUHU21623XXSP,2013-06-28 09:24:00,
2013-06-28 02:29:00,64.8,57.7,29.95,ENE,67,0.0,0.0,78,0.00,,,0.00,WUHU21623XXSP,2013-06-28 09:29:00,
2013-06-28 02:39:00,64.6,57.9,29.95,ENE,67,0.0,0.0,79,0.00,,,0.00,WUHU21623XXSP,2013-06-28 09:39:00,
2013-06-28 02:44:00,64.2,57.7,29.95,ENE,67,0.0,0.0,79,0.00,,,0.00,WUHU21623XXSP,2013-06-28 09:44:00,
2013-06-28 02:49:00,64.2,57.6,29.95,ENE,67,0.0,0.0,80,0.00,,,0.00,WUHU21623XXSP,2013-06-28 09:49:00,
2013-06-28 02:54:00,64.2,57.9,29.95,NE,45,0.0,0.0,80,0.00,,,0.00,WUHU21623XXSP,2013-06-28 09:54:00,
2013-06-28 02:59:00,64.2,57.9,29.95,ENE,67,0.0,0.0,80,0.00,,,0.00,WUHU21623XXSP,2013-06-28 09:59:00,
2013-06-28 03:04:00,64.2,57.9,29.95,ENE,67,0.0,0.0,80,0.00,,,0.00,WUHU21623XXSP,2013-06-28 10:04:00,
2013-06-28 03:14:00,64.0,58.1,29.94,ENE,67,0.0,0.0,81,0.00,,,0.00,WUHU21623XXSP,2013-06-28 10:14:00,
2013-06-28 03:19:00,63.9,58.2,29.94,ENE,67,0.0,0.0,82,0.00,,,0.00,WUHU21623XXSP,2013-06-28 10:19:00,
2013-06-28 03:24:00,63.9,58.6,29.94,ENE,67,0.0,0.0,82,0.00,,,0.00,WUHU21623XXSP,2013-06-28 10:24:00,
2013-06-28 03:29:00,63.7,58.1,29.95,ENE,67,0.0,0.0,82,0.00,,,0.00,WUHU21623XXSP,2013-06-28 10:29:00,
2013-06-28 03:34:00,63.7,58.1,29.94,ENE,67,0.0,0.0,82,0.00,,,0.00,WUHU21623XXSP,2013-06-28 10:34:00,
2013-06-28 03:39:00,63.7,58.4,29.94,ENE,67,0.0,0.0,83,0.00,,,0.00,WUHU21623XXSP,2013-06-28 10:39:00,
2013-06-28 03:44:00,63.5,58.2,29.94,ENE,67,0.0,0.0,83,0.00,,,0.00,WUHU21623XXSP,2013-06-28 10:44:00,
2013-06-28 03:49:00,63.5,58.9,29.94,ENE,67,0.0,0.0,85,0.00,,,0.00,WUHU21623XXSP,2013-06-28 10:49:00,
2013-06-28 03:54:00,63.5,58.6,29.94,ENE,67,0.0,0.0,84,0.00,,,0.00,WUHU21623XXSP,2013-06-28 10:54:00,
2013-06-28 03:59:00,63.3,58.4,29.94,ENE,67,0.0,0.0,84,0.00,,,0.00,WUHU21623XXSP,2013-06-28 10:59:00,
2013-06-28 04:04:00,63.3,58.4,29.94,ENE,67,0.0,0.0,84,0.00,,,0.00,WUHU21623XXSP,2013-06-28 11:04:00,
2013-06-28 04:14:00,63.3,58.7,29.94,ENE,67,0.0,0.0,85,0.00,,,0.00,WUHU21623XXSP,2013-06-28 11:14:00,
2013-06-28 04:19:00,63.1,58.9,29.94,ENE,67,0.0,0.0,86,0.00,,,0.00,WUHU21623XXSP,2013-06-28 11:19:00,
2013-06-28 04:24:00,63.1,58.9,29.94,ENE,67,0.0,0.0,86,0.00,,,0.00,WUHU21623XXSP,2013-06-28 11:24:00,
2013-06-28 04:29:00,63.1,58.9,29.93,NE,45,0.0,0.0,86,0.00,,,0.00,WUHU21623XXSP,2013-06-28 11:29:00,
2013-06-28 04:34:00,63.0,58.9,29.93,NE,45,0.0,0.0,87,0.00,,,0.00,WUHU21623XXSP,2013-06-28 11:34:00,
2013-06-28 04:39:00,63.0,59.1,29.93,NE,45,0.0,0.0,87,0.00,,,0.00,WUHU21623XXSP,2013-06-28 11:39:00,
2013-06-28 04:44:00,63.0,59.1,29.93,NE,45,0.0,0.0,87,0.00,,,0.00,WUHU21623XXSP,2013-06-28 11:44:00,
2013-06-28 04:49:00,62.8,58.9,29.93,ENE,67,0.0,0.0,87,0.00,,,0.00,WUHU21623XXSP,2013-06-28 11:49:00,
2013-06-28 04:54:00,62.8,59.2,29.94,ENE,67,0.0,0.0,88,0.00,,,0.00,WUHU21623XXSP,2013-06-28 11:54:00,
2013-06-28 04:59:00,62.8,59.6,29.93,ENE,67,0.0,0.0,88,0.00,,,0.00,WUHU21623XXSP,2013-06-28 11:59:00,
2013-06-28 05:04:00,62.8,59.2,29.93,ENE,67,0.0,0.0,88,0.00,,,0.00,WUHU21623XXSP,2013-06-28 12:04:00,
2013-06-28 05:09:00,62.8,59.9,29.93,ENE,67,0.0,0.0,90,0.00,,,0.00,WUHU21623XXSP,2013-06-28 12:09:00,
2013-06-28 05:14:00,62.6,59.4,29.93,ENE,67,0.0,0.0,90,0.00,,,0.00,WUHU21623XXSP,2013-06-28 12:14:00,
2013-06-28 05:19:00,62.6,59.4,29.93,ENE,67,0.0,0.0,89,0.00,,,0.00,WUHU21623XXSP,2013-06-28 12:19:00,
2013-06-28 05:24:00,62.4,59.2,29.94,ENE,67,0.0,0.0,89,0.00,,,0.00,WUHU21623XXSP,2013-06-28 12:24:00,
2013-06-28 05:29:00,62.4,59.2,29.93,ENE,67,0.0,0.0,89,0.00,,,0.00,WUHU21623XXSP,2013-06-28 12:29:00,
2013-06-28 05:34:00,62.4,59.2,29.93,ENE,67,0.0,0.0,90,0.00,,,0.00,WUHU21623XXSP,2013-06-28 12:34:00,
2013-06-28 05:39:00,62.4,59.5,29.93,ENE,67,0.0,0.0,90,0.00,,,0.00,WUHU21623XXSP,2013-06-28 12:39:00,
2013-06-28 05:44:00,62.2,59.4,29.93,ENE,67,0.0,0.0,90,0.00,,,0.00,WUHU21623XXSP,2013-06-28 12:44:00,
2013-06-28 05:49:00,62.2,59.6,29.93,ENE,67,0.0,0.0,91,0.00,,,0.00,WUHU21623XXSP,2013-06-28 12:49:00,
2013-06-28 05:54:00,62.2,59.4,29.93,ENE,67,0.0,0.0,91,0.00,,,0.00,WUHU21623XXSP,2013-06-28 12:54:00,
2013-06-28 05:59:00,62.2,59.6,29.93,ENE,67,0.0,0.0,91,0.00,,,0.00,WUHU21623XXSP,2013-06-28 12:59:00,
2013-06-28 06:04:00,62.2,59.6,29.93,ENE,67,0.0,0.0,91,0.00,,,0.00,WUHU21623XXSP,2013-06-28 13:04:00,
2013-06-28 06:09:00,62.1,59.5,29.93,NE,45,0.0,0.0,91,0.00,,,0.00,WUHU21623XXSP,2013-06-28 13:09:00,
2013-06-28 06:14:00,62.1,59.8,29.93,NE,45,0.0,0.0,92,0.00,,,0.00,WUHU21623XXSP,2013-06-28 13:14:00,
2013-06-28 06:19:00,62.1,59.8,29.93,NE,45,0.0,0.0,92,0.00,,,0.00,WUHU21623XXSP,2013-06-28 13:19:00,
2013-06-28 06:24:00,62.1,59.5,29.93,NE,45,0.0,0.0,91,0.00,,,0.00,WUHU21623XXSP,2013-06-28 13:24:00,
2013-06-28 06:29:00,61.9,59.6,29.93,NE,45,0.0,0.0,92,0.00,,,0.00,WUHU21623XXSP,2013-06-28 13:29:00,
2013-06-28 06:34:00,61.9,59.6,29.94,NE,45,0.0,0.0,92,0.00,,,0.00,WUHU21623XXSP,2013-06-28 13:34:00,
2013-06-28 06:39:00,62.1,60.0,29.93,NE,45,0.0,0.0,93,0.00,,,0.00,WUHU21623XXSP,2013-06-28 13:39:00,
2013-06-28 06:44:00,62.1,60.0,29.94,NNE,22,0.0,0.0,93,0.00,,,0.00,WUHU21623XXSP,2013-06-28 13:44:00,
2013-06-28 06:49:00,61.9,59.9,29.93,East,90,0.0,0.0,93,0.00,,,0.00,WUHU21623XXSP,2013-06-28 13:49:00,
2013-06-28 06:54:00,62.1,60.0,29.94,East,90,0.0,0.0,94,0.00,,,0.00,WUHU21623XXSP,2013-06-28 13:54:00,
2013-06-28 06:59:00,62.1,60.3,29.94,East,90,0.0,0.0,94,0.00,,,0.00,WUHU21623XXSP,2013-06-28 13:59:00,
2013-06-28 07:04:00,62.2,60.5,29.94,East,90,0.0,0.0,94,0.00,,,0.00,WUHU21623XXSP,2013-06-28 14:04:00,
2013-06-28 07:09:00,62.2,60.5,29.94,East,90,0.0,0.0,94,0.00,,,0.00,WUHU21623XXSP,2013-06-28 14:09:00,
2013-06-28 07:14:00,62.2,60.5,29.95,East,90,0.0,0.0,94,0.00,,,0.00,WUHU21623XXSP,2013-06-28 14:14:00,
2013-06-28 07:19:00,62.4,60.7,29.94,East,90,0.0,0.0,94,0.00,,,0.00,WUHU21623XXSP,2013-06-28 14:19:00,
2013-06-28 07:24:00,62.4,60.7,29.94,East,90,0.0,0.0,94,0.00,,,0.00,WUHU21623XXSP,2013-06-28 14:24:00,
2013-06-28 07:29:00,62.4,60.7,29.94,East,90,0.0,0.0,94,0.00,,,0.00,WUHU21623XXSP,2013-06-28 14:29:00,
2013-06-28 07:34:00,62.6,60.9,29.94,East,90,0.0,0.0,94,0.00,,,0.00,WUHU21623XXSP,2013-06-28 14:34:00,
2013-06-28 07:39:00,62.8,60.8,29.94,East,90,0.0,0.0,93,0.00,,,0.00,WUHU21623XXSP,2013-06-28 14:39:00,
2013-06-28 07:44:00,63.0,60.9,29.94,East,90,0.0,0.0,93,0.00,,,0.00,WUHU21623XXSP,2013-06-28 14:44:00,
2013-06-28 07:49:00,63.0,60.9,29.94,South,180,0.0,0.0,93,0.00,,,0.00,WUHU21623XXSP,2013-06-28 14:49:00,
2013-06-28 07:54:00,63.1,61.1,29.94,SSE,157,0.0,0.0,93,0.00,,,0.00,WUHU21623XXSP,2013-06-28 14:54:00,
2013-06-28 07:59:00,63.3,61.3,29.94,SSE,157,0.0,0.0,93,0.00,,,0.00,WUHU21623XXSP,2013-06-28 14:59:00,
2013-06-28 08:04:00,63.5,61.5,29.94,South,180,1.1,1.1,93,0.00,,,0.00,WUHU21623XXSP,2013-06-28 15:04:00,
2013-06-28 08:09:00,63.7,61.4,29.94,WNW,292,0.0,1.1,92,0.00,,,0.00,WUHU21623XXSP,2013-06-28 15:09:00,
2013-06-28 08:14:00,64.0,62.0,29.94,NW,315,0.0,1.1,93,0.00,,,0.00,WUHU21623XXSP,2013-06-28 15:14:00,
2013-06-28 08:19:00,64.2,61.9,29.94,NNW,337,0.0,0.0,92,0.00,,,0.00,WUHU21623XXSP,2013-06-28 15:19:00,
2013-06-28 08:24:00,64.6,61.9,29.94,West,270,0.0,0.0,92,0.00,,,0.00,WUHU21623XXSP,2013-06-28 15:24:00,
2013-06-28 08:29:00,64.8,62.1,29.94,NNE,22,0.0,0.0,91,0.00,,,0.00,WUHU21623XXSP,2013-06-28 15:29:00,
2013-06-28 08:34:00,64.9,62.3,29.94,SSE,157,0.0,0.0,91,0.00,,,0.00,WUHU21623XXSP,2013-06-28 15:34:00,
2013-06-28 08:39:00,65.1,62.2,29.94,SSW,202,0.7,0.7,90,0.00,,,0.00,WUHU21623XXSP,2013-06-28 15:39:00,
2013-06-28 08:44:00,65.3,62.3,29.94,WNW,292,0.0,0.7,90,0.00,,,0.00,WUHU21623XXSP,2013-06-28 15:44:00,
2013-06-28 08:49:00,65.7,62.7,29.94,WNW,292,0.0,0.0,90,0.00,,,0.00,WUHU21623XXSP,2013-06-28 15:49:00,
2013-06-28 08:54:00,66.0,62.6,29.94,SSE,157,0.0,0.0,89,0.00,,,0.00,WUHU21623XXSP,2013-06-28 15:54:00,
2013-06-28 08:59:00,66.4,63.0,29.94,SSW,202,0.0,0.0,89,0.00,,,0.00,WUHU21623XXSP,2013-06-28 15:59:00,
2013-06-28 09:04:00,66.7,63.2,29.93,WNW,292,0.0,0.0,88,0.00,,,0.00,WUHU21623XXSP,2013-06-28 16:04:00,
2013-06-28 09:09:00,67.3,63.6,29.94,NW,315,0.0,0.0,88,0.00,,,0.00,WUHU21623XXSP,2013-06-28 16:09:00,
2013-06-28 09:14:00,67.6,63.2,29.94,NW,315,0.0,0.0,87,0.00,,,0.00,WUHU21623XXSP,2013-06-28 16:14:00,
2013-06-28 09:19:00,68.0,63.5,29.93,SSE,157,0.7,0.7,85,0.00,,,0.00,WUHU21623XXSP,2013-06-28 16:19:00,
2013-06-28 09:24:00,68.4,63.7,29.93,North,0,0.0,0.7,85,0.00,,,0.00,WUHU21623XXSP,2013-06-28 16:24:00,
2013-06-28 09:29:00,68.7,63.7,29.93,NNW,337,1.3,1.3,84,0.00,,,0.00,WUHU21623XXSP,2013-06-28 16:29:00,
2013-06-28 09:34:00,69.4,64.0,29.93,SSW,202,0.0,1.3,83,0.00,,,0.00,WUHU21623XXSP,2013-06-28 16:34:00,
2013-06-28 09:39:00,69.6,63.8,29.93,West,270,0.0,1.3,82,0.00,,,0.00,WUHU21623XXSP,2013-06-28 16:39:00,
2013-06-28 09:44:00,69.6,63.8,29.93,SW,225,3.1,3.1,82,0.00,,,0.00,WUHU21623XXSP,2013-06-28 16:44:00,
2013-06-28 09:49:00,70.2,64.0,29.93,SSE,157,1.8,3.1,81,0.00,,,0.00,WUHU21623XXSP,2013-06-28 16:49:00,
2013-06-28 09:54:00,70.3,64.2,29.93,SSW,202,1.1,2.2,81,0.00,,,0.00,WUHU21623XXSP,2013-06-28 16:54:00,
2013-06-28 09:59:00,70.7,64.4,29.93,NW,315,2.0,2.2,81,0.00,,,0.00,WUHU21623XXSP,2013-06-28 16:59:00,
2013-06-28 10:04:00,71.4,64.6,29.92,NNW,337,0.9,2.0,79,0.00,,,0.00,WUHU21623XXSP,2013-06-28 17:04:00,
2013-06-28 10:09:00,71.8,64.5,29.92,West,270,1.3,1.6,78,0.00,,,0.00,WUHU21623XXSP,2013-06-28 17:09:00,
2013-06-28 10:14:00,72.3,65.1,29.92,SW,225,2.0,2.0,78,0.00,,,0.00,WUHU21623XXSP,2013-06-28 17:14:00,
2013-06-28 10:19:00,72.7,64.9,29.91,West,270,0.0,2.0,77,0.00,,,0.00,WUHU21623XXSP,2013-06-28 17:19:00,
2013-06-28 10:24:00,73.0,65.0,29.91,SSW,202,1.6,2.0,76,0.00,,,0.00,WUHU21623XXSP,2013-06-28 17:24:00,
2013-06-28 10:29:00,73.2,65.2,29.92,WNW,292,0.9,2.0,76,0.00,,,0.00,WUHU21623XXSP,2013-06-28 17:29:00,
2013-06-28 10:34:00,73.9,65.5,29.92,NNW,337,4.5,4.5,75,0.00,,,0.00,WUHU21623XXSP,2013-06-28 17:34:00,
2013-06-28 10:39:00,74.5,65.7,29.92,SSW,202,1.6,4.5,74,0.00,,,0.00,WUHU21623XXSP,2013-06-28 17:39:00,
2013-06-28 10:44:00,75.0,65.8,29.92,West,270,1.6,3.6,73,0.00,,,0.00,WUHU21623XXSP,2013-06-28 17:44:00,
2013-06-28 10:49:00,75.9,66.3,29.91,WNW,292,1.3,3.6,72,0.00,,,0.00,WUHU21623XXSP,2013-06-28 17:49:00,
2013-06-28 10:54:00,76.5,66.4,29.91,South,180,2.2,2.2,71,0.00,,,0.00,WUHU21623XXSP,2013-06-28 17:54:00,
2013-06-28 10:59:00,76.8,66.4,29.91,SSW,202,3.4,3.4,70,0.00,,,0.00,WUHU21623XXSP,2013-06-28 17:59:00,
2013-06-28 11:04:00,77.7,66.3,29.91,NNW,337,0.0,3.4,68,0.00,,,0.00,WUHU21623XXSP,2013-06-28 18:04:00,
2013-06-28 11:09:00,78.4,66.5,29.91,WNW,292,3.4,3.4,67,0.00,,,0.00,WUHU21623XXSP,2013-06-28 18:09:00,
2013-06-28 11:14:00,79.0,66.6,29.91,WNW,292,0.0,3.4,66,0.00,,,0.00,WUHU21623XXSP,2013-06-28 18:14:00,
2013-06-28 11:19:00,79.5,66.7,29.91,WSW,247,1.3,3.6,65,0.00,,,0.00,WUHU21623XXSP,2013-06-28 18:19:00,
2013-06-28 11:24:00,80.1,66.8,29.91,WNW,292,0.0,3.6,64,0.00,,,0.00,WUHU21623XXSP,2013-06-28 18:24:00,
2013-06-28 11:29:00,80.4,67.1,29.91,SW,225,2.0,2.0,64,0.00,,,0.00,WUHU21623XXSP,2013-06-28 18:29:00,
2013-06-28 11:34:00,81.1,67.3,29.91,East,90,0.0,2.0,63,0.00,,,0.00,WUHU21623XXSP,2013-06-28 18:34:00,
2013-06-28 11:39:00,81.7,67.4,29.91,SW,225,7.4,7.4,62,0.00,,,0.00,WUHU21623XXSP,2013-06-28 18:39:00,
2013-06-28 11:44:00,82.0,66.8,29.90,WNW,292,6.3,7.4,60,0.00,,,0.00,WUHU21623XXSP,2013-06-28 18:44:00,
2013-06-28 11:49:00,83.1,67.3,29.90,NW,315,2.9,6.3,59,0.00,,,0.00,WUHU21623XXSP,2013-06-28 18:49:00,
2013-06-28 11:54:00,83.7,67.3,29.90,WNW,292,5.1,5.1,58,0.00,,,0.00,WUHU21623XXSP,2013-06-28 18:54:00,
2013-06-28 11:59:00,84.4,67.5,29.90,WNW,292,0.9,5.1,57,0.00,,,0.00,WUHU21623XXSP,2013-06-28 18:59:00,
2013-06-28 12:05:00,85.1,67.1,29.90,WNW,292,3.6,3.6,55,0.00,,,0.00,WUHU21623XXSP,2013-06-28 19:05:00,
2013-06-28 12:10:00,85.6,67.1,29.90,SW,225,1.8,3.6,54,0.00,,,0.00,WUHU21623XXSP,2013-06-28 19:10:00,
2013-06-28 12:15:00,86.2,67.6,29.90,West,270,0.9,2.9,54,0.00,,,0.00,WUHU21623XXSP,2013-06-28 19:15:00,
2013-06-28 12:20:00,86.7,67.5,29.90,SSW,202,1.8,2.9,53,0.00,,,0.00,WUHU21623XXSP,2013-06-28 19:20:00,
2013-06-28 12:25:00,87.1,67.3,29.89,WSW,247,1.6,2.9,52,0.00,,,0.00,WUHU21623XXSP,2013-06-28 19:25:00,
2013-06-28 12:30:00,87.6,67.3,29.89,West,270,3.6,3.6,51,0.00,,,0.00,WUHU21623XXSP,2013-06-28 19:30:00,
2013-06-28 12:35:00,88.0,67.6,29.90,WNW,292,0.0,3.6,51,0.00,,,0.00,WUHU21623XXSP,2013-06-28 19:35:00,
2013-06-28 12:40:00,88.5,68.1,29.89,WNW,292,0.0,3.6,51,0.00,,,0.00,WUHU21623XXSP,2013-06-28 19:40:00,
2013-06-28 12:45:00,88.7,67.7,29.89,WSW,247,0.7,3.8,50,0.00,,,0.00,WUHU21623XXSP,2013-06-28 19:45:00,
2013-06-28 12:50:00,89.4,67.7,29.88,WSW,247,0.9,4.3,49,0.00,,,0.00,WUHU21623XXSP,2013-06-28 19:50:00,
2013-06-28 12:55:00,89.8,67.4,29.88,WSW,247,3.1,4.3,48,0.00,,,0.00,WUHU21623XXSP,2013-06-28 19:55:00,
2013-06-28 13:00:00,90.1,67.1,29.88,SSW,202,2.2,3.1,47,0.00,,,0.00,WUHU21623XXSP,2013-06-28 20:00:00,
2013-06-28 13:05:00,90.7,67.6,29.88,NW,315,0.0,3.8,47,0.00,,,0.00,WUHU21623XXSP,2013-06-28 20:05:00,
2013-06-28 13:10:00,91.0,67.9,29.88,SW,225,6.3,6.3,47,0.00,,,0.00,WUHU21623XXSP,2013-06-28 20:10:00,
2013-06-28 13:15:00,91.2,67.4,29.88,South,180,0.7,6.3,46,0.00,,,0.00,WUHU21623XXSP,2013-06-28 20:15:00,
2013-06-28 13:20:00,91.6,67.1,29.88,South,180,2.9,4.5,45,0.00,,,0.00,WUHU21623XXSP,2013-06-28 20:20:00,
2013-06-28 13:25:00,91.9,67.4,29.89,SSW,202,2.5,2.9,45,0.00,,,0.00,WUHU21623XXSP,2013-06-28 20:25:00,
2013-06-28 13:30:00,92.1,66.9,29.88,SSW,202,6.9,6.9,44,0.00,,,0.00,WUHU21623XXSP,2013-06-28 20:30:00,
2013-06-28 13:35:00,92.3,66.4,29.88,SE,135,3.6,6.9,43,0.00,,,0.00,WUHU21623XXSP,2013-06-28 20:35:00,
2013-06-28 13:40:00,92.5,66.6,29.88,WSW,247,0.7,3.6,43,0.00,,,0.00,WUHU21623XXSP,2013-06-28 20:40:00,
2013-06-28 13:45:00,92.5,66.6,29.88,South,180,1.8,3.4,43,0.00,,,0.00,WUHU21623XXSP,2013-06-28 20:45:00,
2013-06-28 13:50:00,92.5,65.9,29.88,East,90,2.0,2.0,42,0.00,,,0.00,WUHU21623XXSP,2013-06-28 20:50:00,
2013-06-28 13:55:00,92.7,66.1,29.88,SW,225,0.0,2.0,42,0.00,,,0.00,WUHU21623XXSP,2013-06-28 20:55:00,
2013-06-28 14:00:00,92.8,65.6,29.87,SW,225,2.7,5.4,41,0.00,,,0.00,WUHU21623XXSP,2013-06-28 21:00:00,
2013-06-28 14:05:00,93.0,65.1,29.87,WNW,292,1.1,5.4,40,0.00,,,0.00,WUHU21623XXSP,2013-06-28 21:05:00,
2013-06-28 14:10:00,93.4,66.1,29.87,South,180,1.1,3.8,41,0.00,,,0.00,WUHU21623XXSP,2013-06-28 21:10:00,
2013-06-28 14:15:00,93.6,65.6,29.87,West,270,2.5,2.5,40,0.00,,,0.00,WUHU21623XXSP,2013-06-28 21:15:00,
2013-06-28 14:20:00,93.7,65.8,29.87,SSW,202,4.7,4.7,40,0.00,,,0.00,WUHU21623XXSP,2013-06-28 21:20:00,
2013-06-28 14:25:00,93.9,65.9,29.86,WSW,247,1.6,4.7,40,0.00,,,0.00,WUHU21623XXSP,2013-06-28 21:25:00,
2013-06-28 14:30:00,94.1,65.3,29.86,South,180,3.4,6.0,39,0.00,,,0.00,WUHU21623XXSP,2013-06-28 21:30:00,
2013-06-28 14:35:00,94.3,66.3,29.86,West,270,3.4,6.0,40,0.00,,,0.00,WUHU21623XXSP,2013-06-28 21:35:00,
2013-06-28 14:40:00,94.5,66.4,29.86,West,270,1.8,3.4,40,0.00,,,0.00,WUHU21623XXSP,2013-06-28 21:40:00,
2013-06-28 14:45:00,94.6,66.6,29.86,South,180,6.0,6.0,40,0.00,,,0.00,WUHU21623XXSP,2013-06-28 21:45:00,
2013-06-28 14:50:00,94.6,66.6,29.85,NNW,337,2.9,6.0,40,0.00,,,0.00,WUHU21623XXSP,2013-06-28 21:50:00,
2013-06-28 14:55:00,94.6,66.6,29.85,SSE,157,0.9,3.1,40,0.00,,,0.00,WUHU21623XXSP,2013-06-28 21:55:00,
2013-06-28 15:00:00,94.8,66.8,29.85,WNW,292,1.8,3.4,40,0.00,,,0.00,WUHU21623XXSP,2013-06-28 22:00:00,
2013-06-28 15:05:00,94.8,66.8,29.85,SW,225,2.0,4.3,40,0.00,,,0.00,WUHU21623XXSP,2013-06-28 22:05:00,
2013-06-28 15:10:00,95.0,66.1,29.85,SSE,157,0.0,4.3,39,0.00,,,0.00,WUHU21623XXSP,2013-06-28 22:10:00,
2013-06-28 15:15:00,95.0,66.9,29.84,West,270,2.2,5.1,40,0.00,,,0.00,WUHU21623XXSP,2013-06-28 22:15:00,
2013-06-28 15:20:00,95.0,66.1,29.84,West,270,0.0,5.1,39,0.00,,,0.00,WUHU21623XXSP,2013-06-28 22:20:00,
2013-06-28 15:25:00,95.2,66.3,29.84,WNW,292,2.2,2.2,39,0.00,,,0.00,WUHU21623XXSP,2013-06-28 22:25:00,
2013-06-28 15:30:00,95.4,66.4,29.84,SSE,157,1.1,6.5,39,0.00,,,0.00,WUHU21623XXSP,2013-06-28 22:30:00,
2013-06-28 15:35:00,95.5,66.6,29.84,South,180,1.3,6.5,39,0.00,,,0.00,WUHU21623XXSP,2013-06-28 22:35:00,
2013-06-28 15:40:00,95.5,66.6,29.84,SW,225,4.5,5.1,39,0.00,,,0.00,WUHU21623XXSP,2013-06-28 22:40:00,
2013-06-28 15:45:00,95.4,65.6,29.83,SSE,157,5.6,5.6,38,0.00,,,0.00,WUHU21623XXSP,2013-06-28 22:45:00,
2013-06-28 15:50:00,95.5,66.6,29.83,ESE,112,0.7,5.6,39,0.00,,,0.00,WUHU21623XXSP,2013-06-28 22:50:00,
2013-06-28 15:55:00,95.7,65.9,29.83,SW,225,3.6,3.6,38,0.00,,,0.00,WUHU21623XXSP,2013-06-28 22:55:00,
2013-06-28 16:00:00,95.9,66.1,29.83,WSW,247,0.0,4.9,38,0.00,,,0.00,WUHU21623XXSP,2013-06-28 23:00:00,
2013-06-28 16:05:00,95.9,66.1,29.83,East,90,0.0,4.9,38,0.00,,,0.00,WUHU21623XXSP,2013-06-28 23:05:00,
2013-06-28 16:10:00,95.9,66.1,29.83,SSW,202,7.4,7.4,38,0.00,,,0.00,WUHU21623XXSP,2013-06-28 23:10:00,
2013-06-28 16:15:00,96.1,66.2,29.82,West,270,0.0,7.4,38,0.00,,,0.00,WUHU21623XXSP,2013-06-28 23:15:00,
2013-06-28 16:20:00,96.1,65.4,29.82,SSE,157,1.6,7.4,37,0.00,,,0.00,WUHU21623XXSP,2013-06-28 23:20:00,
2013-06-28 16:25:00,96.3,65.6,29.82,WSW,247,0.7,5.1,37,0.00,,,0.00,WUHU21623XXSP,2013-06-28 23:25:00,
2013-06-28 16:30:00,96.3,66.4,29.81,West,270,2.0,5.1,38,0.00,,,0.00,WUHU21623XXSP,2013-06-28 23:30:00,
2013-06-28 16:35:00,96.4,65.7,29.82,SW,225,8.1,8.1,37,0.00,,,0.00,WUHU21623XXSP,2013-06-28 23:35:00,
2013-06-28 16:40:00,96.6,66.7,29.82,North,0,0.9,8.1,38,0.00,,,0.00,WUHU21623XXSP,2013-06-28 23:40:00,
2013-06-28 16:45:00,97.2,66.4,29.82,SSW,202,4.5,4.5,37,0.00,,,0.00,WUHU21623XXSP,2013-06-28 23:45:00,
2013-06-28 16:50:00,97.3,65.7,29.81,South,180,0.0,4.5,36,0.00,,,0.00,WUHU21623XXSP,2013-06-28 23:50:00,
2013-06-28 16:55:00,97.7,66.9,29.82,West,270,3.1,3.6,37,0.00,,,0.00,WUHU21623XXSP,2013-06-28 23:55:00,
2013-06-28 17:00:00,98.2,66.5,29.81,WSW,247,0.0,5.1,36,0.00,,,0.00,WUHU21623XXSP,2013-06-29 00:00:00,
2013-06-28 17:05:00,98.4,65.9,29.82,SW,225,0.0,5.1,35,0.00,,,0.00,WUHU21623XXSP,2013-06-29 00:05:00,
2013-06-28 17:10:00,98.6,66.0,29.81,South,180,3.6,6.9,35,0.00,,,0.00,WUHU21623XXSP,2013-06-29 00:10:00,
2013-06-28 17:15:00,98.8,65.4,29.81,SW,225,0.0,6.9,34,0.00,,,0.00,WUHU21623XXSP,2013-06-29 00:15:00,
2013-06-28 17:20:00,99.0,65.5,29.81,SSE,157,5.4,5.4,34,0.00,,,0.00,WUHU21623XXSP,2013-06-29 00:20:00,
2013-06-28 17:25:00,99.3,66.7,29.80,WNW,292,1.6,5.4,35,0.00,,,0.00,WUHU21623XXSP,2013-06-29 00:25:00,
2013-06-28 17:30:00,99.7,66.2,29.81,SSE,157,2.7,3.8,34,0.00,,,0.00,WUHU21623XXSP,2013-06-29 00:30:00,
2013-06-28 17:35:00,99.9,66.3,29.81,South,180,2.9,2.9,34,0.00,,,0.00,WUHU21623XXSP,2013-06-29 00:35:00,
2013-06-28 17:40:00,100.2,67.5,29.81,SE,135,0.0,2.9,35,0.00,,,0.00,WUHU21623XXSP,2013-06-29 00:40:00,
2013-06-28 17:45:00,100.6,67.0,29.80,South,180,5.8,5.8,34,0.00,,,0.00,WUHU21623XXSP,2013-06-29 00:45:00,
2013-06-28 17:50:00,100.9,66.4,29.80,ESE,112,0.9,5.8,33,0.00,,,0.00,WUHU21623XXSP,2013-06-29 00:50:00,
2013-06-28 17:56:00,100.8,65.4,29.80,SSE,157,3.8,4.3,32,0.00,,,0.00,WUHU21623XXSP,2013-06-29 00:56:00,
2013-06-28 18:01:00,100.6,66.1,29.81,SW,225,0.0,4.3,33,0.00,,,0.00,WUHU21623XXSP,2013-06-29 01:01:00,
2013-06-28 18:06:00,100.8,66.3,29.80,WSW,247,0.0,0.0,33,0.00,,,0.00,WUHU21623XXSP,2013-06-29 01:06:00,
2013-06-28 18:11:00,101.3,66.7,29.81,South,180,0.0,3.4,33,0.00,,,0.00,WUHU21623XXSP,2013-06-29 01:11:00,
2013-06-28 18:16:00,101.7,67.0,29.80,West,270,2.0,3.4,33,0.00,,,0.00,WUHU21623XXSP,2013-06-29 01:16:00,
2013-06-28 18:21:00,102.0,66.5,29.81,South,180,0.0,2.0,32,0.00,,,0.00,WUHU21623XXSP,2013-06-29 01:21:00,
2013-06-28 18:26:00,102.4,66.8,29.80,South,180,2.9,3.8,32,0.00,,,0.00,WUHU21623XXSP,2013-06-29 01:26:00,
2013-06-28 18:31:00,102.4,66.8,29.80,WSW,247,0.0,3.8,32,0.00,,,0.00,WUHU21623XXSP,2013-06-29 01:31:00,
2013-06-28 18:36:00,102.0,65.6,29.80,SSE,157,2.0,2.2,31,0.00,,,0.00,WUHU21623XXSP,2013-06-29 01:36:00,
2013-06-28 18:41:00,101.5,65.2,29.80,SW,225,2.9,3.8,31,0.00,,,0.00,WUHU21623XXSP,2013-06-29 01:41:00,
2013-06-28 18:46:00,101.1,65.7,29.80,South,180,1.1,3.8,32,0.00,,,0.00,WUHU21623XXSP,2013-06-29 01:46:00,
2013-06-28 18:51:00,100.9,65.6,29.80,West,270,1.3,1.3,32,0.00,,,0.00,WUHU21623XXSP,2013-06-29 01:51:00,
2013-06-28 18:56:00,100.6,66.1,29.80,SSE,157,0.7,1.3,33,0.00,,,0.00,WUHU21623XXSP,2013-06-29 01:56:00,
2013-06-28 19:01:00,100.4,66.0,29.80,South,180,1.3,1.8,33,0.00,,,0.00,WUHU21623XXSP,2013-06-29 02:01:00,
2013-06-28 19:06:00,100.2,65.8,29.81,WSW,247,1.6,1.8,33,0.00,,,0.00,WUHU21623XXSP,2013-06-29 02:06:00,
2013-06-28 19:11:00,100.0,65.7,29.80,West,270,1.8,1.8,33,0.00,,,0.00,WUHU21623XXSP,2013-06-29 02:11:00,
2013-06-28 19:21:00,99.1,64.8,29.81,SW,225,0.0,1.1,33,0.00,,,0.00,WUHU21623XXSP,2013-06-29 02:21:00,
2013-06-28 19:26:00,98.6,64.4,29.81,West,270,0.0,0.0,33,0.00,,,0.00,WUHU21623XXSP,2013-06-29 02:26:00,
2013-06-28 19:31:00,97.9,64.5,29.81,SW,225,2.7,2.7,34,0.00,,,0.00,WUHU21623XXSP,2013-06-29 02:31:00,
2013-06-28 19:36:00,97.3,64.2,29.81,SW,225,1.3,2.7,34,0.00,,,0.00,WUHU21623XXSP,2013-06-29 02:36:00,
2013-06-28 19:41:00,96.6,63.4,29.81,South,180,0.7,1.3,34,0.00,,,0.00,WUHU21623XXSP,2013-06-29 02:41:00,
2013-06-28 19:46:00,96.1,63.0,29.81,East,90,0.0,3.4,34,0.00,,,0.00,WUHU21623XXSP,2013-06-29 02:46:00,
2013-06-28 19:51:00,95.5,62.5,29.81,SSW,202,0.9,3.4,34,0.00,,,0.00,WUHU21623XXSP,2013-06-29 02:51:00,
2013-06-28 19:56:00,94.8,62.7,29.82,West,270,0.0,0.9,35,0.00,,,0.00,WUHU21623XXSP,2013-06-29 02:56:00,
2013-06-28 20:01:00,94.3,63.8,29.81,SSW,202,0.0,0.9,37,0.00,,,0.00,WUHU21623XXSP,2013-06-29 03:01:00,
2013-06-28 20:06:00,93.9,63.5,29.81,West,270,0.9,0.9,37,0.00,,,0.00,WUHU21623XXSP,2013-06-29 03:06:00,
2013-06-28 20:11:00,93.0,61.9,29.82,South,180,0.0,0.9,36,0.00,,,0.00,WUHU21623XXSP,2013-06-29 03:11:00,
2013-06-28 20:16:00,92.7,63.2,29.81,SE,135,0.0,0.0,38,0.00,,,0.00,WUHU21623XXSP,2013-06-29 03:16:00,
2013-06-28 20:21:00,92.1,62.7,29.82,ESE,112,0.0,0.0,38,0.00,,,0.00,WUHU21623XXSP,2013-06-29 03:21:00,
2013-06-28 20:26:00,91.6,63.0,29.82,South,180,0.0,0.0,39,0.00,,,0.00,WUHU21623XXSP,2013-06-29 03:26:00,
2013-06-28 20:31:00,90.7,62.2,29.82,ESE,112,0.0,1.3,39,0.00,,,0.00,WUHU21623XXSP,2013-06-29 03:31:00,
2013-06-28 20:36:00,90.0,62.4,29.82,NNE,22,0.0,1.3,40,0.00,,,0.00,WUHU21623XXSP,2013-06-29 03:36:00,
2013-06-28 20:41:00,89.4,61.9,29.82,SE,135,0.0,0.0,40,0.00,,,0.00,WUHU21623XXSP,2013-06-29 03:41:00,
2013-06-28 20:46:00,88.5,61.8,29.82,NE,45,0.0,0.0,41,0.00,,,0.00,WUHU21623XXSP,2013-06-29 03:46:00,
2013-06-28 20:51:00,88.0,61.4,29.83,East,90,0.0,0.0,41,0.00,,,0.00,WUHU21623XXSP,2013-06-29 03:51:00,
2013-06-28 20:56:00,87.4,61.6,29.83,East,90,0.0,0.0,42,0.00,,,0.00,WUHU21623XXSP,2013-06-29 03:56:00,
2013-06-28 21:01:00,86.5,60.7,29.83,East,90,0.0,0.0,42,0.00,,,0.00,WUHU21623XXSP,2013-06-29 04:01:00,
2013-06-28 21:06:00,86.0,60.9,29.83,East,90,0.0,0.0,43,0.00,,,0.00,WUHU21623XXSP,2013-06-29 04:06:00,
2013-06-28 21:11:00,85.6,60.6,29.83,East,90,0.0,0.0,43,0.00,,,0.00,WUHU21623XXSP,2013-06-29 04:11:00,
2013-06-28 21:16:00,84.9,60.5,29.83,ENE,67,0.0,0.0,44,0.00,,,0.00,WUHU21623XXSP,2013-06-29 04:16:00,
2013-06-28 21:21:00,84.6,60.9,29.83,East,90,0.0,0.0,45,0.00,,,0.00,WUHU21623XXSP,2013-06-29 04:21:00,
2013-06-28 21:26:00,84.0,60.4,29.84,East,90,0.0,0.0,45,0.00,,,0.00,WUHU21623XXSP,2013-06-29 04:26:00,
2013-06-28 21:31:00,83.5,60.5,29.83,ENE,67,0.0,0.0,46,0.00,,,0.00,WUHU21623XXSP,2013-06-29 04:31:00,
2013-06-28 21:36:00,83.1,60.1,29.83,ENE,67,0.0,0.0,46,0.00,,,0.00,WUHU21623XXSP,2013-06-29 04:36:00,
2013-06-28 21:41:00,82.8,60.4,29.83,East,90,0.0,0.0,47,0.00,,,0.00,WUHU21623XXSP,2013-06-29 04:41:00,
2013-06-28 21:46:00,82.2,59.9,29.83,East,90,0.0,0.0,47,0.00,,,0.00,WUHU21623XXSP,2013-06-29 04:46:00,
2013-06-28 21:51:00,81.7,59.4,29.84,ENE,67,0.0,0.0,47,0.00,,,0.00,WUHU21623XXSP,2013-06-29 04:51:00,
2013-06-28 21:56:00,81.3,59.7,29.84,East,90,0.0,0.0,48,0.00,,,0.00,WUHU21623XXSP,2013-06-29 04:56:00,
2013-06-28 22:01:00,80.8,59.2,29.84,North,0,0.0,0.0,48,0.00,,,0.00,WUHU21623XXSP,2013-06-29 05:01:00,
2013-06-28 22:06:00,80.4,59.5,29.84,North,0,0.0,0.0,49,0.00,,,0.00,WUHU21623XXSP,2013-06-29 05:06:00,
2013-06-28 22:11:00,80.2,59.3,29.85,North,0,0.0,0.0,49,0.00,,,0.00,WUHU21623XXSP,2013-06-29 05:11:00,
2013-06-28 22:16:00,79.7,59.0,29.85,North,0,0.0,0.0,49,0.00,,,0.00,WUHU21623XXSP,2013-06-29 05:16:00,
2013-06-28 22:21:00,79.3,58.5,29.85,North,0,0.0,0.0,49,0.00,,,0.00,WUHU21623XXSP,2013-06-29 05:21:00,
2013-06-28 22:26:00,79.0,58.8,29.84,North,0,0.0,0.0,50,0.00,,,0.00,WUHU21623XXSP,2013-06-29 05:26:00,
2013-06-28 22:31:00,78.6,58.5,29.84,North,0,0.0,0.0,50,0.00,,,0.00,WUHU21623XXSP,2013-06-29 05:31:00,
2013-06-28 22:36:00,78.4,58.3,29.84,North,0,0.0,0.0,50,0.00,,,0.00,WUHU21623XXSP,2013-06-29 05:36:00,
2013-06-28 22:41:00,78.1,58.0,29.84,North,0,0.0,0.0,50,0.00,,,0.00,WUHU21623XXSP,2013-06-29 05:41:00,
2013-06-28 22:46:00,77.7,57.7,29.84,North,0,0.0,0.0,50,0.00,,,0.00,WUHU21623XXSP,2013-06-29 05:46:00,
2013-06-28 22:51:00,77.7,57.7,29.84,North,0,0.0,0.0,50,0.00,,,0.00,WUHU21623XXSP,2013-06-29 05:51:00,
2013-06-28 22:56:00,77.2,57.2,29.84,North,0,0.0,0.0,50,0.00,,,0.00,WUHU21623XXSP,2013-06-29 05:56:00,
2013-06-28 23:01:00,77.0,57.5,29.83,North,0,0.0,0.0,51,0.00,,,0.00,WUHU21623XXSP,2013-06-29 06:01:00,
2013-06-28 23:06:00,76.8,57.4,29.83,North,0,0.0,0.0,51,0.00,,,0.00,WUHU21623XXSP,2013-06-29 06:06:00,
2013-06-28 23:11:00,76.6,57.7,29.83,North,0,0.0,0.0,52,0.00,,,0.00,WUHU21623XXSP,2013-06-29 06:11:00,
2013-06-28 23:16:00,76.3,57.4,29.84,North,0,0.0,0.0,52,0.00,,,0.00,WUHU21623XXSP,2013-06-29 06:16:00,
2013-06-28 23:21:00,75.9,57.1,29.83,SSW,202,0.0,1.6,52,0.00,,,0.00,WUHU21623XXSP,2013-06-29 06:21:00,
2013-06-28 23:26:00,75.7,57.4,29.84,NW,315,0.0,1.6,53,0.00,,,0.00,WUHU21623XXSP,2013-06-29 06:26:00,
2013-06-28 23:31:00,75.4,57.1,29.84,ESE,112,0.0,0.0,53,0.00,,,0.00,WUHU21623XXSP,2013-06-29 06:31:00,
2013-06-28 23:36:00,75.4,57.1,29.84,ESE,112,0.0,0.0,53,0.00,,,0.00,WUHU21623XXSP,2013-06-29 06:36:00,
2013-06-28 23:41:00,75.0,56.7,29.84,ESE,112,0.0,0.0,53,0.00,,,0.00,WUHU21623XXSP,2013-06-29 06:41:00,
2013-06-28 23:46:00,75.0,56.7,29.84,ESE,112,0.0,0.0,53,0.00,,,0.00,WUHU21623XXSP,2013-06-29 06:46:00,
2013-06-28 23:51:00,74.8,57.1,29.84,ESE,112,0.0,0.0,54,0.00,,,0.00,WUHU21623XXSP,2013-06-29 06:51:00,
2013-06-28 23:56:00,74.5,56.7,29.84,ESE,112,0.0,0.0,54,0.00,,,0.00,WUHU21623XXSP,2013-06-29 06:56:00,